DW9672 Weather Reports


Display with metric or nautical units.
time (UTC)temp
F
wind
direction
speed
MPH
gust
MPH
rain 1hr
in
rain 24hr
in
rain mn
in
humidity
%
barometer
mb
20260904121541 73 189 0.0 0.0 0.00 0.02 0.00 97 1013.6
20260904120029 72 180 0.0 0.0 0.00 0.02 0.00 97 1013.6
20260904114529 72 180 0.0 0.0 0.00 0.02 0.00 97 1013.4
20260904113039 72 180 0.0 0.0 0.00 0.02 0.00 97 1013.3
20260904111535 72 180 0.0 0.0 0.00 0.02 0.00 97 1013.3
20260904110027 73 180 0.0 0.0 0.00 0.02 0.00 97 1013.3
20260904104527 73 180 0.0 0.0 0.00 0.02 0.00 97 1013.4
20260904103025 73 180 0.0 0.0 0.00 0.02 0.00 96 1013.5
20260904101524 73 180 0.0 0.0 0.00 0.02 0.00 96 1013.7
20260904100006 73 180 0.0 0.0 0.00 0.02 0.00 96 1013.7
20260904094514 73 180 0.0 0.0 0.00 0.02 0.00 96 1013.7
20260904093047 73 180 0.0 0.0 0.00 0.02 0.00 96 1013.8
20260904091559 73 180 0.0 0.0 0.00 0.02 0.00 96 1013.8
20260904090035 73 180 0.0 0.0 0.00 0.02 0.00 96 1013.7
20260904084538 74 180 0.0 0.0 0.00 0.02 0.00 96 1013.6
20260904083040 74 180 0.0 0.0 0.00 0.02 0.00 96 1013.3
20260904081535 74 180 0.0 0.0 0.00 0.02 0.00 96 1013.1
20260904080031 74 180 0.0 0.0 0.00 0.02 0.00 96 1013.0
20260904074530 74 180 0.0 0.0 0.00 0.02 0.00 96 1013.1
20260904073028 75 180 0.0 0.0 0.00 0.02 0.00 96 1013.2
20260904071526 75 180 0.0 0.0 0.00 0.02 0.00 96 1013.3
20260904070016 75 180 0.0 0.0 0.00 0.02 0.00 96 1013.6
20260904064515 75 180 0.0 0.0 0.00 0.02 0.00 96 1013.7
20260904063011 76 180 0.0 0.0 0.00 0.02 0.00 96 1013.9
20260904061510 76 180 0.0 0.0 0.00 0.02 0.00 96 1014.1
20260904060015 76 180 0.0 0.0 0.00 0.02 0.00 96 1014.0
20260904054508 76 180 0.0 0.0 0.00 0.02 0.00 96 1014.0
20260904053013 76 180 0.0 0.0 0.00 0.02 0.00 96 1013.9
20260904051511 76 180 0.0 0.0 0.00 0.02 0.00 95 1013.7
20260904050046 76 180 0.0 0.0 0.00 0.02 0.00 95 1013.7
20260904044549 76 180 0.0 0.0 0.00 0.02 0.00 95 1013.8
20260904043039 76 180 0.0 0.0 0.00 0.02 0.00 94 1013.7
20260904041529 77 180 0.0 0.0 0.00 0.02 0.00 94 1013.9
20260904040008 77 180 0.0 0.0 0.00 0.02 0.00 94 1013.9
20260904034505 77 180 0.0 0.0 0.00 0.02 0.02 93 1013.9
20260904033049 77 180 0.0 0.0 0.00 0.02 0.02 92 1013.9
20260904031550 77 180 0.0 0.0 0.00 0.02 0.02 91 1014.0
20260904030030 78 180 0.0 0.0 0.00 0.02 0.02 91 1014.0
20260904024535 78 180 0.0 0.0 0.00 0.02 0.02 90 1013.8
20260904023015 78 180 0.0 0.0 0.00 0.02 0.02 89 1013.7
20260904021518 79 180 0.0 0.0 0.00 0.02 0.02 88 1013.5
20260904020101 79 180 0.0 0.0 0.00 0.02 0.02 87 1013.2
20260904014617 80 180 0.0 0.0 0.00 0.02 0.02 86 1012.9
20260904013045 80 180 0.0 0.0 0.00 0.02 0.02 85 1012.5
20260904011542 81 180 0.0 0.0 0.00 0.02 0.02 82 1012.3
20260904010042 82 180 0.0 0.0 0.00 0.02 0.02 78 1012.3
20260904004542 83 180 0.0 0.0 0.00 0.02 0.02 75 1012.4
20260904003043 85 180 0.0 0.0 0.00 0.02 0.02 70 1012.3
20260904001540 86 180 0.0 4.0 0.00 0.02 0.02 68 1012.3
20260904000040 88 216 0.0 4.0 0.00 0.02 0.02 70 1012.4
20260903234543 89 148 2.0 10.0 0.00 0.02 0.02 74 1012.3
20260903233038 91 188 0.0 0.0 0.00 0.02 0.02 71 1012.3
20260903231521 93 188 0.0 0.0 0.00 0.02 0.02 67 1012.5
20260903230028 94 193 0.0 0.0 0.01 0.02 0.02 68 1012.5
20260903224501 95 193 0.0 3.0 0.01 0.03 0.02 67 1012.5
20260903223109 95 193 0.0 4.0 0.01 0.03 0.02 65 1012.7
20260903221542 95 317 0.0 0.0 0.01 0.03 0.02 64 1012.8
20260903220041 96 331 0.0 3.0 0.00 0.02 0.01 61 1012.9
20260903214535 95 32 0.0 0.0 0.00 0.02 0.01 63 1012.8
20260903213026 94 32 0.0 1.0 0.00 0.02 0.01 67 1012.9
20260903211609 93 32 0.0 2.0 0.00 0.02 0.01 68 1012.9
20260903210057 93 120 2.0 5.0 0.00 0.02 0.01 65 1013.1
20260903204538 93 89 0.0 5.0 0.00 0.02 0.01 65 1013.2
20260903203039 92 11 0.0 3.0 0.00 0.02 0.01 67 1013.3
20260903201517 92 43 1.0 5.0 0.00 0.02 0.01 66 1013.4
20260903200015 92 355 2.0 8.0 0.00 0.02 0.01 68 1013.3
20260903194556 91 51 0.0 4.0 0.00 0.02 0.01 69 1013.5
20260903193104 91 39 3.0 6.0 0.00 0.02 0.01 71 1013.5
20260903191536 90 51 0.0 6.0 0.00 0.02 0.01 72 1013.8
20260903190034 90 24 0.0 4.0 0.00 0.02 0.01 71 1014.0
20260903184517 91 22 0.0 4.0 0.00 0.02 0.01 69 1014.0
20260903183017 90 111 1.0 8.0 0.00 0.02 0.01 70 1014.1
20260903181506 90 32 1.0 5.0 0.00 0.02 0.01 70 1014.3
20260903180014 90 25 0.0 5.0 0.00 0.02 0.01 70 1014.4
20260903174506 90 16 0.0 0.0 0.00 0.02 0.01 69 1014.4
20260903173005 91 347 2.0 6.0 0.00 0.02 0.01 67 1014.6
20260903171502 90 339 0.0 4.0 0.00 0.02 0.01 69 1014.2
20260903164606 89 213 1.0 5.0 0.00 0.02 0.01 70 1014.2
20260903163055 89 355 0.0 4.0 0.00 0.02 0.01 71 1014.3
20260903161535 88 312 0.0 5.0 0.00 0.02 0.01 73 1014.4
20260903160033 87 223 0.0 8.0 0.00 0.02 0.01 74 1014.4
20260903154518 86 227 0.0 5.0 0.00 0.02 0.01 77 1014.4
20260903153016 85 324 1.0 6.0 0.01 0.02 0.01 76 1014.5
20260903151514 85 5 2.0 5.0 0.01 0.02 0.01 77 1014.6
20260903150011 85 197 2.0 6.0 0.01 0.02 0.01 76 1014.4
20260903144509 84 185 0.0 3.0 0.01 0.02 0.01 77 1014.4
20260903143006 83 221 0.0 0.0 0.00 0.01 0.00 80 1014.4
20260903141510 83 231 0.0 0.0 0.00 0.01 0.00 79 1014.4
20260903140007 82 218 0.0 0.0 0.00 0.01 0.00 82 1014.3
20260903134545 81 244 0.0 0.0 0.00 0.01 0.00 83 1014.3
20260903133043 81 164 0.0 0.0 0.00 0.01 0.00 84 1014.4
20260903131520 80 231 0.0 0.0 0.00 0.01 0.00 84 1014.5
20260903130016 78 183 0.0 0.0 0.00 0.01 0.00 88 1014.6
20260903124606 76 192 0.0 0.0 0.00 0.01 0.00 92 1014.7
20260903123054 74 184 0.0 0.0 0.00 0.01 0.00 95 1014.6